Weather History for Harare Kutsaga, Zimbabwe

Change the Weather History Date:

Thursday, October 11, 2012

  Actual Average Record
Temperature  
Mean Temperature 75 °F -  
Max Temperature 88 °F 82 °F 93 °F (2010)
Min Temperature 62 °F 57 °F 41 °F (2004)
Cooling Degree Days 10    
Growing Degree Days 25 (Base 50)    
Moisture  
Dew Point 38 °F    
Average Humidity 25    
Maximum Humidity 42    
Minimum Humidity 8    
Precipitation  
Precipitation 0.00 in 0.08 in - ()
Sea Level Pressure  
Sea Level Pressure 30.16 in    
Wind  
Wind Speed 9 mph ()    
Max Wind Speed 14 mph    
Max Gust Speed -    
Visibility 6.0 miles    
Events      
Averages and records for this station are not official NWS values.
T = Trace of Precipitation, MM = Missing Value Source: Averaged Metar Reports

Daily Weather History Graph

Daily Weather History Graph

Search for Another Location

Airport:

Trip Planner

Search our weather history database for the weather conditions in past years. The results will help you decide how hot, cold, wet, or windy it might be!

Date:

Astronomy

Oct. 11, 2012 Rise Set
Actual Time 5:29 AM CAT 5:55 PM CAT
Civil Twilight 5:07 AM CAT 6:17 PM CAT
Nautical Twilight 4:41 AM CAT 6:42 PM CAT
Astronomical Twilight 4:15 AM CAT 7:08 PM CAT
Moon 2:09 AM CAT (10/11) 2:07 PM CAT (10/11)
Length of Visible Light 13h 09m
Length of Day
12h 25m
Waning Crescent, 20% of the Moon is Illuminated
Oct 11
Waning Crescent
Oct 15
New
Oct 22
First Quarter
Oct 29
Full
Nov 7
Last Quarter

Hourly Weather History & Observations

Time (CAT) Temp. Dew Point Humidity Pressure Visibility Wind Dir Wind Speed Gust Speed Precip Events Conditions
2:00 AM 64 °F 36 °F 23%  in 5 mi ENE 8.1 mph - -   Haze
2:00 AM 64.4 °F 35.6 °F 34% 30.12 in 5.0 mi ENE 8.1 mph - N/A   Clear
5:00 AM 64.4 °F 37.4 °F 37% 30.12 in 5.0 mi ENE 10.4 mph - N/A   Unknown
6:00 AM 62.6 °F 39.2 °F 42% 30.15 in 3.1 mi East 9.2 mph - N/A   Haze
7:00 AM 66.2 °F 41.0 °F 40% 30.18 in 3.1 mi East 9.2 mph - N/A   Mist
8:00 AM 74 °F 43 °F 22%  in 5 mi East 13.8 mph - -   Haze
8:00 AM 75.2 °F 42.8 °F 31% 30.21 in 5.0 mi East 13.8 mph - N/A   Unknown
9:00 AM 78.8 °F 42.8 °F 28% 30.21 in 5.0 mi East 13.8 mph - N/A   Partly Cloudy
10:00 AM 80.6 °F 42.8 °F 26% 30.21 in 5.6 mi ENE 12.7 mph - N/A   Clear
11:00 AM 82.4 °F 42.8 °F 25% 30.21 in - East 10.4 mph - N/A   Clear
12:00 PM 86.0 °F 42.8 °F 22% 30.15 in - East 11.5 mph - N/A   Clear
1:00 PM 86.0 °F 35.6 °F 17% 30.12 in - ENE 11.5 mph - N/A   Clear
2:00 PM 88 °F 35 °F 8%  in 12 mi East 12.7 mph - -   Haze
2:00 PM 87.8 °F 35.6 °F 16% 30.12 in - East 12.7 mph - N/A   Clear
3:00 PM 87.8 °F 35.6 °F 16% 30.09 in - ESE 10.4 mph - N/A   Clear
4:00 PM 86.0 °F 35.6 °F 17% 30.09 in - ESE 10.4 mph - N/A   Clear
6:00 PM 80.6 °F 32.0 °F 17% 30.12 in - ENE 10.4 mph - N/A   Clear
7:00 PM 75.2 °F 33.8 °F 22% 30.15 in - East 6.9 mph - N/A   Clear
8:00 PM 72 °F 33 °F 14%  in 12 mi East 6.9 mph - -   Haze
8:00 PM 71.6 °F 33.8 °F 25% 30.18 in - East 6.9 mph - N/A   Clear
9:00 PM 69.8 °F 35.6 °F 28% 30.21 in - ESE 8.1 mph - N/A   Clear
10:00 PM 69.8 °F 37.4 °F 31% 30.21 in - ESE 9.2 mph - N/A   Clear
11:00 PM 66.2 °F 37.4 °F 35% 30.21 in - ESE 8.1 mph - N/A   Clear